Flag for Canada Weather past 2 weeks in Yellowknife, Northwest Territories, Canada

Now
50 °F

Passing clouds.


Feels Like: 48 °F
Forecast: 50 / 60 °F
Wind: 5 mph from Southwest

Location: Yellowknife

Current Time: Aug 28, 2015 at 7:26:54 AM

Latest Report: Aug 28, 2015 at 6:00 AM


Visibility: 15 mi

Pressure: 29.43 "Hg

Humidity: 88%

Dew point: 46 °F

Location of YellowknifeLocation

Historic Weather in Yellowknife — Graph

°F

Yellowknife temperature yesterday

Maximum temperature yesterday: 66 °F (at 5:00 PM)
Minimum temperature yesterday: 52 °F (at 2:00 AM)
Average temperature yesterday: 58 °F

Past Weeks' High & Low Weather Summary

 TemperatureHumidityPressure
High72 °F (Aug 13, 5:00 PM)100% (Aug 16, 12:00 AM)30.13 "Hg (Aug 16, 12:00 AM)
Low37 °F (Aug 23, 3:00 AM)40% (Aug 16, 1:00 PM)29.29 "Hg (Aug 19, 1:00 PM)
Average56 °F75%29.85 "Hg
* Reported Aug 13 6:00 AM — Aug 28 6:00 AM, Yellowknife, Weather by CustomWeather, © 2015

Note: Actual official high and low records may vary slightly from our data, if they occured in-between our weather recording intervals... More about our weather records

Advertising

Yellowknife weather history for previous 24 hours

 ConditionsComfort  
Time TempWeatherWind HumidityBarometerVisibility
6:00 AM
Fri, Aug 28
50 °FPassing clouds.5 mph88%29.43 "Hg15 mi
5:00 AM52 °FPartly cloudy.6 mph82%29.42 "Hg15 mi
4:00 AM54 °FPartly cloudy.3 mph77%29.41 "Hg15 mi
3:00 AM55 °FPassing clouds.6 mph67%29.41 "Hg15 mi
2:00 AM57 °FPassing clouds.6 mph63%29.41 "Hg15 mi
1:00 AM59 °FOvercast.6 mph59%29.41 "Hg15 mi
12:00 AM61 °FOvercast.6 mph55%29.41 "Hg15 mi
11:00 PM
Thu, Aug 27
61 °FPassing clouds.8 mph55%29.41 "Hg15 mi
10:00 PM61 °FScattered clouds.7 mph55%29.42 "Hg15 mi
9:00 PM61 °FPartly sunny.5 mph63%29.42 "Hg15 mi
8:00 PM61 °FPartly sunny.7 mph68%29.42 "Hg15 mi
7:00 PM64 °FPartly sunny.14 mph60%29.44 "Hg15 mi
6:00 PM66 °FPartly sunny.8 mph60%29.46 "Hg15 mi
5:00 PM66 °FPartly sunny.13 mph60%29.47 "Hg15 mi
4:00 PM64 °FPartly sunny.15 mph60%29.49 "Hg15 mi
3:00 PM64 °FPartly sunny.20 mph64%29.51 "Hg15 mi
2:00 PM63 °FPartly sunny.22 mph68%29.53 "Hg15 mi
1:00 PM61 °FScattered clouds.21 mph68%29.55 "Hg15 mi
12:00 PM59 °FPartly sunny.21 mph77%29.56 "Hg15 mi
11:00 AM57 °FBroken clouds.18 mph82%29.59 "Hg15 mi
10:00 AM57 °FPartly sunny.14 mph82%29.62 "Hg15 mi
9:00 AM57 °FPartly sunny.14 mph82%29.64 "Hg15 mi
8:00 AM55 °FScattered clouds.14 mph88%29.66 "Hg15 mi
7:00 AM54 °FPassing clouds.10 mph88%29.69 "Hg15 mi
Weather by CustomWeather, © 2015

See weather overviewHow to use our weather pages